Weather History for Lakeville, MN

Change the Weather History Date:

Tuesday, November 23, 2010

  Actual Average Record
Temperature  
Mean Temperature 19 °F -  
Max Temperature 30 °F 34 °F 55 °F (2001)
Min Temperature 8 °F 21 °F -5 °F (1950)
Degree Days  
Heating Degree Days 46    
Moisture  
Dew Point 9 °F    
Average Humidity 83    
Maximum Humidity 100    
Minimum Humidity 37    
Precipitation  
Precipitation 0.00 in - - ()
Sea Level Pressure  
Sea Level Pressure 30.18 in    
Wind  
Wind Speed 12 mph (West)    
Max Wind Speed 21 mph    
Max Gust Speed 31 mph    
Visibility 10 miles    
Events Snow    
Averages and records for this station are not official NWS values.
T = Trace of Precipitation, MM = Missing Value Source: NWS Daily Summary

Daily Weather History Graph

Daily Weather History Graph

Search for Another Location

Airport:

Trip Planner

Search our weather history database for the weather conditions in past years. The results will help you decide how hot, cold, wet, or windy it might be!

Date:

Astronomy

Nov. 23, 2010 Rise Set
Actual Time 7:20 AM CST 4:38 PM CST
Civil Twilight 6:47 AM CST 5:10 PM CST
Nautical Twilight 6:11 AM CST 5:46 PM CST
Astronomical Twilight 5:37 AM CST 6:21 PM CST
Moon 6:16 PM CST (11/23) 9:22 AM CST (11/23)
Length of Visible Light 10h 22m
Length of Day
9h 18m
Waning Gibbous, 96% of the Moon is Illuminated
Nov 23
Waning Gibbous
Nov 28
Last Quarter
Dec 5
New
Dec 13
First Quarter
Dec 21
Full

Hourly Weather History & Observations

Time (CST) Temp. Windchill Dew Point Humidity Pressure Visibility Wind Dir Wind Speed Gust Speed Precip Events Conditions
12:12 AM 10.4 °F -8.6 °F 6.8 °F 85% 29.96 in 10.0 mi West 20.7 mph 31.1 mph N/A   Clear
12:32 AM 10.4 °F -7.7 °F 6.8 °F 85% 29.97 in 10.0 mi West 18.4 mph 21.9 mph N/A   Clear
12:52 AM 10.4 °F -6.0 °F 6.8 °F 85% 29.98 in 10.0 mi West 15.0 mph 21.9 mph N/A   Scattered Clouds
1:12 AM 10.4 °F -5.4 °F 6.8 °F 85% 29.98 in 10.0 mi West 13.8 mph 21.9 mph N/A   Clear
1:32 AM 10.4 °F -7.2 °F 6.8 °F 85% 29.98 in 10.0 mi West 17.3 mph 24.2 mph N/A   Clear
1:52 AM 10.4 °F -6.6 °F 6.8 °F 85% 30.00 in 10.0 mi West 16.1 mph 27.6 mph N/A   Clear
2:12 AM 10.4 °F -5.4 °F 6.8 °F 85% 30.01 in 10.0 mi West 13.8 mph - N/A   Clear
2:32 AM 10.4 °F -4.1 °F 6.8 °F 85% 30.04 in 10.0 mi West 11.5 mph 18.4 mph N/A   Clear
2:52 AM 10.4 °F -5.4 °F 6.8 °F 85% 30.04 in 10.0 mi West 13.8 mph - N/A Snow Light Snow
3:32 AM 8.6 °F -7.7 °F 6.8 °F 92% 30.05 in 10.0 mi West 13.8 mph 20.7 mph N/A   Clear
3:52 AM 8.6 °F -8.3 °F 6.8 °F 92% 30.06 in 10.0 mi West 15.0 mph 19.6 mph N/A   Clear
4:12 AM 8.6 °F -8.9 °F 6.8 °F 92% 30.06 in 10.0 mi West 16.1 mph 20.7 mph N/A   Clear
4:32 AM 8.6 °F -8.3 °F 6.8 °F 92% 30.08 in 10.0 mi West 15.0 mph 20.7 mph N/A   Clear
4:52 AM 8.6 °F -6.3 °F 6.8 °F 92% 30.09 in 10.0 mi West 11.5 mph 17.3 mph N/A   Clear
5:12 AM 8.6 °F -7.7 °F 6.8 °F 92% 30.10 in 10.0 mi West 13.8 mph 18.4 mph N/A   Clear
5:52 AM 8.6 °F -8.3 °F 6.8 °F 92% 30.11 in 10.0 mi West 15.0 mph - N/A   Clear
6:12 AM 8.6 °F -7.0 °F 5.0 °F 85% 30.12 in 10.0 mi West 12.7 mph - N/A   Clear
6:32 AM 8.6 °F -7.7 °F 5.0 °F 85% 30.13 in 10.0 mi West 13.8 mph - N/A   Clear
6:52 AM 8.6 °F -8.3 °F 5.0 °F 85% 30.14 in 10.0 mi West 15.0 mph - N/A   Clear
7:12 AM 8.6 °F -9.5 °F 5.0 °F 85% 30.15 in 10.0 mi West 17.3 mph 21.9 mph N/A   Scattered Clouds
7:32 AM 8.6 °F -7.7 °F 5.0 °F 85% 30.15 in 10.0 mi West 13.8 mph - N/A Snow Light Snow
7:52 AM 8.6 °F -7.7 °F 6.8 °F 92% 30.16 in 10.0 mi West 13.8 mph - N/A   Overcast
8:12 AM 8.6 °F -8.3 °F 6.8 °F 92% 30.18 in 7.0 mi West 15.0 mph - N/A Snow Light Snow
8:32 AM 30.2 °F 21.3 °F 6.8 °F 37% 30.19 in 7.0 mi West 10.4 mph - N/A Snow Light Snow
8:52 AM 8.6 °F -7.0 °F 6.8 °F 92% 30.20 in 10.0 mi West 12.7 mph - N/A   Clear
9:12 AM 10.4 °F -3.3 °F 6.8 °F 85% 30.19 in 7.0 mi West 10.4 mph - N/A Snow Light Snow
9:32 AM 10.4 °F -3.3 °F 6.8 °F 85% 30.20 in 7.0 mi West 10.4 mph - N/A Snow Light Snow
9:52 AM 12.2 °F -1.0 °F 8.6 °F 85% 30.23 in 10.0 mi West 10.4 mph - N/A Snow Light Snow
10:12 AM 12.2 °F 1.7 °F 8.6 °F 85% 30.23 in 10.0 mi West 6.9 mph - N/A Snow Light Snow
10:32 AM 14.0 °F 1.2 °F 8.6 °F 79% 30.24 in 10.0 mi West 10.4 mph - N/A   Scattered Clouds
10:52 AM 14.0 °F 2.9 °F 8.6 °F 79% 30.24 in 5.0 mi West 8.1 mph - N/A Snow Light Snow
11:12 AM 15.8 °F 2.7 °F 10.4 °F 79% 30.24 in 7.0 mi West 11.5 mph - N/A Snow Light Snow
11:32 AM 15.8 °F 4.2 °F 10.4 °F 79% 30.24 in 10.0 mi West 9.2 mph - N/A Snow Light Snow
11:52 AM 15.8 °F 6.1 °F 10.4 °F 79% 30.23 in 10.0 mi West 6.9 mph - N/A   Clear
12:12 PM 17.6 °F 9.3 °F 10.4 °F 73% 30.24 in 10.0 mi West 5.8 mph - N/A   Clear
12:32 PM 17.6 °F 9.3 °F 10.4 °F 73% 30.24 in 10.0 mi West 5.8 mph - N/A   Clear
12:52 PM 17.6 °F 8.2 °F 10.4 °F 73% 30.25 in 10.0 mi WNW 6.9 mph - N/A   Clear
1:12 PM 17.6 °F 8.2 °F 10.4 °F 73% 30.24 in 10.0 mi West 6.9 mph - N/A   Clear
1:32 PM 17.6 °F 9.3 °F 12.2 °F 79% 30.24 in 10.0 mi West 5.8 mph - N/A   Clear
1:52 PM 17.6 °F 9.3 °F 12.2 °F 79% 30.25 in 10.0 mi WSW 5.8 mph - N/A   Clear
2:12 PM 17.6 °F 12.3 °F 12.2 °F 79% 30.25 in 10.0 mi West 3.5 mph - N/A   Clear
2:32 PM 17.6 °F - 10.4 °F 73% 30.25 in 10.0 mi Calm Calm - N/A   Clear
2:52 PM 17.6 °F 12.3 °F 10.4 °F 73% 30.26 in 10.0 mi West 3.5 mph - N/A   Clear
3:12 PM 17.6 °F - 10.4 °F 73% 30.25 in 10.0 mi Calm Calm - N/A   Clear
3:32 PM 17.6 °F - 10.4 °F 73% 30.26 in 10.0 mi Calm Calm - N/A   Clear
3:52 PM 17.6 °F - 10.4 °F 73% 30.26 in 10.0 mi Calm Calm - N/A   Clear
4:12 PM 17.6 °F - 10.4 °F 73% 30.26 in 10.0 mi Calm Calm - N/A   Clear
4:32 PM 17.6 °F - 10.4 °F 73% 30.25 in 10.0 mi Calm Calm - N/A   Clear
4:52 PM 15.8 °F - 10.4 °F 79% 30.25 in 10.0 mi Calm Calm - N/A   Clear
5:12 PM 15.8 °F - 10.4 °F 79% 30.26 in 10.0 mi Calm Calm - N/A   Clear
5:32 PM 14.0 °F - 10.4 °F 86% 30.25 in 10.0 mi Calm Calm - N/A   Clear
5:52 PM 14.0 °F - 10.4 °F 86% 30.26 in 10.0 mi Calm Calm - N/A   Clear
6:12 PM 14.0 °F - 10.4 °F 86% 30.27 in 10.0 mi Calm Calm - N/A   Clear
6:32 PM 12.2 °F - 10.4 °F 92% 30.27 in 10.0 mi Calm Calm - N/A   Clear
6:52 PM 12.2 °F - 10.4 °F 92% 30.27 in 10.0 mi Calm Calm - N/A   Clear
7:12 PM 12.2 °F 6.1 °F 10.4 °F 92% 30.25 in 10.0 mi ENE 3.5 mph - N/A   Clear
7:32 PM 10.4 °F - 10.4 °F 100% 30.25 in 10.0 mi Calm Calm - N/A   Clear
7:52 PM 12.2 °F - 10.4 °F 92% 30.25 in 10.0 mi Calm Calm - N/A   Clear
8:12 PM 12.2 °F 6.1 °F 10.4 °F 92% 30.24 in 10.0 mi East 3.5 mph - N/A   Clear
8:32 PM 10.4 °F 2.2 °F 10.4 °F 100% 30.24 in 10.0 mi East 4.6 mph - N/A   Clear
9:12 PM 12.2 °F 4.3 °F 10.4 °F 92% 30.24 in 10.0 mi SE 4.6 mph - N/A   Clear
9:32 PM 14.0 °F 8.2 °F 10.4 °F 86% 30.23 in 10.0 mi East 3.5 mph - N/A   Clear
9:52 PM 15.8 °F 6.1 °F 12.2 °F 86% 30.22 in 10.0 mi East 6.9 mph - N/A   Clear
10:12 PM 15.8 °F 5.1 °F 12.2 °F 86% 30.22 in 10.0 mi East 8.1 mph - N/A   Clear
10:32 PM 15.8 °F 4.2 °F 12.2 °F 86% 30.21 in 10.0 mi East 9.2 mph - N/A   Clear
10:52 PM 15.8 °F 4.2 °F 12.2 °F 86% 30.20 in 10.0 mi ESE 9.2 mph - N/A   Clear
11:12 PM 15.8 °F 5.1 °F 12.2 °F 86% 30.21 in 10.0 mi ESE 8.1 mph - N/A   Clear
11:32 PM 15.8 °F 8.6 °F 12.2 °F 86% 30.21 in 10.0 mi ESE 4.6 mph - N/A   Clear
11:52 PM 15.8 °F 5.1 °F 12.2 °F 86% 30.19 in 10.0 mi East 8.1 mph - N/A   Clear